User: anonymous   Login
Location: �chenoz-la-M�line
(47.6009°N, 6.1354°E)
Time: 05:21:43
(UTC+00:00)
Language:

STARLINK-2111 - Orbit

View from above orbital plane
View from above orbital plane
View from above satellite
View from above satellite

Ground track
Ground track

The orbit data is extracted from the following two-line orbital elements,

1 47390U 21005AT  21112.91667824  .00037358  00000-0  25159-2 0  9991
2 47390  53.0534 140.2941 0001232  71.4835   7.7754 15.06366085 14489
Epoch (UTC): 22 April 2021 22:00:01
Eccentricity: 0.0001232
inclination: 53.0534°
perigee height: 546 km
apogee height: 548 km
right ascension of ascending node: 140.2941°
argument of perigee: 71.4835°
revolutions per day: 15.06366085
mean anomaly at epoch: 7.7754°
orbit number at epoch: 1448

The dashed part of the orbit path shows where the satellite is in the earth's shadow,  

DLR